Gore Bay, Ontario

6:33 PM EST on January 21, 2018 (GMT -0500)
Gore Bay-Manitoulin

Weather History for CYZE - August, 2013

Change the Weather History Date:

Sunday, August 18, 2013

  Actual Average Record
Temperature  
Mean Temperature 65 °F -  
Max Temperature 80 °F 68 °F 84 °F (2016)
Min Temperature 50 °F 52 °F 40 °F (2014)
Growing Degree Days 15 (Base 50)    
Moisture  
Dew Point 56 °F    
Average Humidity 66    
Maximum Humidity 94    
Minimum Humidity 34    
Precipitation  
Precipitation 0.00 in 0.11 in - ()
Sea Level Pressure  
Sea Level Pressure 30.16 in    
Wind  
Wind Speed 7 mph ()    
Max Wind Speed 14 mph    
Max Gust Speed -    
Visibility 9.0 miles    
Events      
Averages and records for this station are not official NWS values.
T = Trace of Precipitation, MM = Missing Value Source: Averaged Metar Reports

Daily Weather History Graph

Daily Weather History Graph

Search for Another Location

Airport or City:

Trip Planner

Search our weather history database for the weather conditions in past years. The results will help you decide how hot, cold, wet, or windy it might be!

Date:

Astronomy

Aug. 18, 2013 Rise Set
Actual Time 6:34 AM EDT 8:33 PM EDT
Civil Twilight 6:01 AM EDT 9:05 PM EDT
Nautical Twilight 5:22 AM EDT 9:44 PM EDT
Astronomical Twilight 4:38 AM EDT 10:27 PM EDT
Moon 6:41 PM EDT (8/18) 3:37 AM EDT (8/18)
Length of Visible Light 15h 03m
Length of Day
13h 59m
Waxing Gibbous, 92% of the Moon is Illuminated
Aug 18
Waxing Gibbous
Aug 20
Full
Aug 28
Last Quarter
Sep 5
New
Sep 12
First Quarter

Hourly Weather History & Observations

Time (EDT) Temp. Heat Index Dew Point Humidity Pressure Visibility Wind Dir Wind Speed Gust Speed Precip Events Conditions
12:00 AM 62.6 °F - 53.6 °F 72% 30.20 in 9.0 mi SSE 5.8 mph - N/A   Clear
1:00 AM 62.6 °F - 55.4 °F 77% 30.19 in 9.0 mi SSE 9.2 mph - N/A   Clear
2:00 AM 53 °F - 49 °F 84% 30.17 in - SW 3.5 mph - -  
2:00 AM 62.6 °F - 53.6 °F 72% 30.19 in 9.0 mi South 4.6 mph - N/A   Clear
3:00 AM 60.8 °F - 55.4 °F 82% 30.19 in 9.0 mi ESE 6.9 mph - N/A   Clear
4:00 AM 62.6 °F - 55.4 °F 77% 30.18 in 9.0 mi SSW 11.5 mph - N/A   Clear
5:00 AM 60.8 °F - 57.2 °F 88% 30.19 in 9.0 mi SSW 6.9 mph - N/A   Clear
6:00 AM 60.8 °F - 57.2 °F 88% 30.20 in 9.0 mi SSW 8.1 mph - N/A   Clear
7:00 AM 59.0 °F - 57.2 °F 94% 30.20 in 9.0 mi South 5.8 mph - N/A   Clear
8:00 AM 58 °F - 51 °F 71% 30.17 in - SW 5.8 mph - -  
8:00 AM 64.4 °F - 59.0 °F 83% 30.20 in 9.0 mi SSW 8.1 mph - N/A   Clear
9:00 AM 68.0 °F - 55.4 °F 64% 30.21 in 9.0 mi SW 8.1 mph - N/A   Clear
10:00 AM 69.8 °F - 57.2 °F 64% 30.21 in 9.0 mi SW 3.5 mph - N/A   Partly Cloudy
11:00 AM 73.4 °F - 57.2 °F 57% 30.20 in 9.0 mi SW 6.9 mph - N/A   Clear
12:00 PM 75.2 °F - 57.2 °F 53% 30.18 in 9.0 mi SW 9.2 mph - N/A   Clear
1:00 PM 78.8 °F - 51.8 °F 39% 30.17 in 9.0 mi West 12.7 mph - N/A   Clear
2:00 PM 77 °F - 54 °F 34% 30.10 in - WSW 11.5 mph - -  
2:00 PM 78.8 °F - 55.4 °F 44% 30.15 in 9.0 mi West 13.8 mph - N/A   Clear
3:00 PM 80.6 °F 80.3 °F 53.6 °F 39% 30.15 in 9.0 mi West 13.8 mph - N/A   Clear
4:00 PM 77.0 °F - 57.2 °F 50% 30.14 in 9.0 mi SW 9.2 mph - N/A   Clear
5:00 PM 75.2 °F - 59.0 °F 57% 30.12 in 9.0 mi SW 12.7 mph - N/A   Clear
6:00 PM 71.6 °F - 55.4 °F 57% 30.12 in 9.0 mi SW 12.7 mph - N/A   Clear
7:00 PM 73.4 °F - 55.4 °F 53% 30.11 in 9.0 mi SSW 10.4 mph - N/A   Clear
8:00 PM 68.0 °F - 55.4 °F 64% 30.10 in 9.0 mi SW 11.5 mph - N/A   Partly Cloudy
9:00 PM 68.0 °F - 57.2 °F 68% 30.09 in 9.0 mi SW 9.2 mph - N/A   Mostly Cloudy
10:00 PM 66.2 °F - 59.0 °F 78% 30.09 in 9.0 mi SW 10.4 mph - N/A   Clear
11:00 PM 66.2 °F - 57.2 °F 73% 30.07 in 9.0 mi SW 10.4 mph - N/A   Clear